User: anonymous   Login
Location: Navalespino
(40.5894°N, 4.2660°W)
Time: 13:23:06
(UTC+00:00)
Language:

USA 229 - Orbit

View from above orbital plane
View from above orbital plane
View from above satellite
View from above satellite

Ground track
Ground track

The orbit data is extracted from the following two-line orbital elements,

1 37386U 11014A   24139.87777764 0.00000000  00000-0  00000-0 0    09
2 37386  63.4278  59.2387 0288472 356.6456   3.3544 13.40924356    05
Epoch (UTC): 18 May 2024 21:03:59
Eccentricity: 0.0288472
inclination: 63.4278°
perigee height: 890 km
apogee height: 1322 km
right ascension of ascending node: 59.2387°
argument of perigee: 356.6456°
revolutions per day: 13.40924356
mean anomaly at epoch: 3.3544°
orbit number at epoch: 0

The dashed part of the orbit path shows where the satellite is in the earth's shadow,  

DLR